(505245) = 2012 UV105

Discovered at Kitt Peak on 2007-10-09 by Spacewatch.

Orbit

Orbit type: Main Belt

Note: WebGL enabled browser required.

epoch2023-09-13.0
epoch JD2460200.5
perihelion date2018-08-12.19325
perihelion JD2458342.69325
argument of perihelion (°)196.58949
ascending node (°)249.72244
inclination (°)8.62046
eccentricity0.0868605
perihelion distance (AU)2.7337058
Tisserand w.r.t. Jupiter3.2
ΔV w.r.t. Earth (km/sec)10.6
semimajor axis (AU)2.9937438
mean anomaly (°)353.49431
mean daily motion (°/day)0.19027510
aphelion distance (AU)3.254
period (years)5.18
P-vector [x]0.06735000
P-vector [y]0.93157928
P-vector [z]0.35724504
Q-vector [x]-0.98777319
Q-vector [y]0.11271432
Q-vector [z]-0.10770144
absolute magnitude17.13
phase slope0.15
uncertainty0
referenceMPEC 2024-A141
observations used94
oppositions9
arc length (days)5938
first opposition used2007
last opposition used2024
residual rms (arc-secs)0.34
perturbers coarse indicatorM-v
perturbers precise indicator003Ek
first observation date used2007-10-09.0
last observation date used2024-01-11.0
computer nameMPCLINUX
JD of orbit computation2458049.171888
perihelion JD uncertainty (days)1.0311E-02
argument of perihelion uncertainty (°)2.0467E-03
ascending node uncertainty (°)8.1398E-05
inclination uncertainty (°)8.5058E-06
eccentricity uncertainty 6.4503E-08
perihelion distance uncertainty (AU)3.0652E-07
Minimum Orbit Intersection Distances (in AU)
for orbit epoch: 2460200.5, reference: E2024-AE1
Mercury2.42796
Venus2.01477
Earth1.74974
Mars1.16402
Jupiter1.97759
Saturn6.32019
Uranus15.5097
Neptune26.9694

Observations

94 total observations over interval: 2007 10 09.44033 – 2024 01 11.293300
These data are available for download (format description).

Date (UT) J2000 RA J2000 Dec Magn Location Ref
2007 10 09.44033 03 46 24.21 +25 07 11.9 21.0 V 691 – Steward Observatory, Kitt Peak-Spacewatch MPS 447849
2007 10 09.45802 03 46 23.86 +25 07 09.1 20.9 V 691 – Steward Observatory, Kitt Peak-Spacewatch MPS 447849
2007 10 09.47569 03 46 23.61 +25 07 07.9 21.0 V 691 – Steward Observatory, Kitt Peak-Spacewatch MPS 447849
2007 11 01.21311 03 34 23.64 +23 50 52.8   691 – Steward Observatory, Kitt Peak-Spacewatch MPS 447849
2007 11 01.23076 03 34 22.84 +23 50 48.0   691 – Steward Observatory, Kitt Peak-Spacewatch MPS 447849
2007 11 01.24841 03 34 22.01 +23 50 42.7   691 – Steward Observatory, Kitt Peak-Spacewatch MPS 447849
2007 11 09.16088 03 28 00.07 +23 09 07.1 21.3 V 691 – Steward Observatory, Kitt Peak-Spacewatch MPS 447849
2007 11 09.17852 03 27 59.14 +23 09 01.1 20.7 V 691 – Steward Observatory, Kitt Peak-Spacewatch MPS 447849
2007 11 09.19960 03 27 58.08 +23 08 54.1 21.3 V 691 – Steward Observatory, Kitt Peak-Spacewatch MPS 447849
2012 10 19.517592 02 13 28.059 +21 40 58.33 20.8 w F51 – Pan-STARRS 1, Haleakala MPS 438201
2012 10 19.531823 02 13 27.369 +21 40 53.57 20.8 w F51 – Pan-STARRS 1, Haleakala MPS 438201
2012 10 19.560311 02 13 25.991 +21 40 43.68 20.8 w F51 – Pan-STARRS 1, Haleakala MPS 438201
2012 10 23.19700 02 10 33.75 +21 19 20.2 20.7 V 691 – Steward Observatory, Kitt Peak-Spacewatch MPS 438201
2012 10 23.21470 02 10 32.87 +21 19 13.7 20.7 V 691 – Steward Observatory, Kitt Peak-Spacewatch MPS 438201
2012 10 23.23240 02 10 31.97 +21 19 07.5 20.8 V 691 – Steward Observatory, Kitt Peak-Spacewatch MPS 438201
2012 11 02.31911 02 02 26.05 +20 12 20.9 20.3 V G96 – Mt. Lemmon Survey MPS 446119
2012 11 02.32611 02 02 25.65 +20 12 17.8 20.4 V G96 – Mt. Lemmon Survey MPS 446119
2012 11 02.33308 02 02 25.36 +20 12 15.0 20.9 V G96 – Mt. Lemmon Survey MPS 446119
2012 11 02.34006 02 02 25.00 +20 12 11.7 20.6 V G96 – Mt. Lemmon Survey MPS 446119
2012 11 07.279968 01 58 37.382 +19 36 55.78 20.9 w F51 – Pan-STARRS 1, Haleakala MPS 446119
2012 11 07.294030 01 58 36.727 +19 36 49.58 20.9 w F51 – Pan-STARRS 1, Haleakala MPS 446119
2012 11 07.308077 01 58 36.086 +19 36 43.82 21.5 w F51 – Pan-STARRS 1, Haleakala MPS 446119
2012 11 07.322234 01 58 35.434 +19 36 37.42 21.3 w F51 – Pan-STARRS 1, Haleakala MPS 446119
2014 01 26.43908 09 30 42.096 +01 59 41.83 21.4 w F51 – Pan-STARRS 1, Haleakala MPS 498616
2014 01 26.45145 09 30 41.498 +01 59 42.71 21.2 w F51 – Pan-STARRS 1, Haleakala MPS 498616
2014 01 26.47634 09 30 40.308 +01 59 44.34 21.1 w F51 – Pan-STARRS 1, Haleakala MPS 498616
2014 02 28.35173 09 04 45.168 +03 41 28.89 21.6 w F51 – Pan-STARRS 1, Haleakala MPS 504087
2014 02 28.36339 09 04 44.704 +03 41 31.77 21.5 w F51 – Pan-STARRS 1, Haleakala MPS 504087
2014 02 28.37607 09 04 44.182 +03 41 35.05 21.1 w F51 – Pan-STARRS 1, Haleakala MPS 504087
2014 02 28.38774 09 04 43.705 +03 41 38.01 21.1 w F51 – Pan-STARRS 1, Haleakala MPS 504087
2015 06 20.96229 14 27 28.17 -17 53 15.3 22.7 V W84 – Cerro Tololo-DECam MPS 1284871
2015 06 20.99714 14 27 27.82 -17 53 08.0   W84 – Cerro Tololo-DECam MPS 1284871
2015 06 21.03259 14 27 27.47 -17 53 00.6   W84 – Cerro Tololo-DECam MPS 1284871
2017 10 14.81033 00 54 11.34 +16 49 05.1   621 – Bergisch Gladbach MPS 826300
2017 10 14.84768 00 54 09.54 +16 48 50.2   621 – Bergisch Gladbach MPS 826300
2017 10 14.89517 00 54 07.39 +16 48 31.5 21.1 V 621 – Bergisch Gladbach MPS 826300
2017 10 22.24308 00 48 44.00 +15 56 33.1 21.0 G G96 – Mt. Lemmon Survey MPS 828239
2017 10 22.24835 00 48 43.73 +15 56 31.0 20.9 G G96 – Mt. Lemmon Survey MPS 828239
2017 10 22.25355 00 48 43.53 +15 56 28.5 20.9 G G96 – Mt. Lemmon Survey MPS 828239
2019 01 27.23925 08 09 33.46 +09 02 22.7 20.6 G G96 – Mt. Lemmon Survey MPS 967228
2019 01 27.24442 08 09 33.21 +09 02 23.0 20.8 G G96 – Mt. Lemmon Survey MPS 967228
2019 01 27.24962 08 09 32.93 +09 02 23.5 20.6 G G96 – Mt. Lemmon Survey MPS 967228
2019 01 27.25481 08 09 32.61 +09 02 23.8 20.7 G G96 – Mt. Lemmon Survey MPS 967228
2020 04 21.40665 13 56 38.649 -20 03 30.50 21.8 w F51 – Pan-STARRS 1, Haleakala MPS 1185196
2020 04 21.41772 13 56 38.102 -20 03 26.33 21.3 w F51 – Pan-STARRS 1, Haleakala MPS 1185196
2020 04 21.42880 13 56 37.553 -20 03 22.30 21.4 w F51 – Pan-STARRS 1, Haleakala MPS 1185196
2020 04 21.43986 13 56 37.022 -20 03 18.38 21.1 w F51 – Pan-STARRS 1, Haleakala MPS 1185196
2020 04 22.42350 13 55 50.813 -19 57 26.44 21.4 w F51 – Pan-STARRS 1, Haleakala MPS 1185196
2020 04 22.43511 13 55 50.237 -19 57 22.12 21.8 w F51 – Pan-STARRS 1, Haleakala MPS 1185196
2020 04 22.44676 13 55 49.677 -19 57 18.09 21.5 w F51 – Pan-STARRS 1, Haleakala MPS 1185196
2020 04 22.45836 13 55 49.108 -19 57 14.06 21.6 w F51 – Pan-STARRS 1, Haleakala MPS 1185196
2020 04 27.37452 13 52 00.660 -19 26 56.75 21.5 w F51 – Pan-STARRS 1, Haleakala MPS 1185196
2020 04 27.38569 13 52 00.128 -19 26 52.08 22.2 w F51 – Pan-STARRS 1, Haleakala MPS 1185196
2020 04 27.39682 13 51 59.601 -19 26 48.43 21.6 w F51 – Pan-STARRS 1, Haleakala MPS 1185196
2020 04 27.40796 13 51 59.077 -19 26 44.04 21.5 w F51 – Pan-STARRS 1, Haleakala MPS 1185196
2020 05 15.30580 13 39 57.224 -17 32 22.31 22.0 w F51 – Pan-STARRS 1, Haleakala MPS 1195352
2020 05 15.30644 13 39 57.203 -17 32 22.15 21.5 w F51 – Pan-STARRS 1, Haleakala MPS 1195352
2020 05 15.31736 13 39 56.820 -17 32 17.93 21.6 w F51 – Pan-STARRS 1, Haleakala MPS 1195352
2020 05 15.31800 13 39 56.810 -17 32 17.77 21.5 w F51 – Pan-STARRS 1, Haleakala MPS 1195352
2020 05 15.32895 13 39 56.433 -17 32 13.80 22.0 w F51 – Pan-STARRS 1, Haleakala MPS 1195352
2020 05 15.32960 13 39 56.397 -17 32 13.59 21.6 w F51 – Pan-STARRS 1, Haleakala MPS 1195352
2020 05 15.34068 13 39 56.012 -17 32 09.25 21.8 w F51 – Pan-STARRS 1, Haleakala MPS 1195352
2022 08 25.446624 00 14 32.141 +14 13 36.06 21.59 w F51 – Pan-STARRS 1, Haleakala MPS 1634246
2022 08 25.457653 00 14 31.811 +14 13 35.56 21.56 w F51 – Pan-STARRS 1, Haleakala MPS 1634246
2022 08 25.479734 00 14 31.219 +14 13 34.35 21.94 w F51 – Pan-STARRS 1, Haleakala MPS 1634246
2022 08 31.399108 00 11 35.368 +14 06 17.53 21.75 w F51 – Pan-STARRS 1, Haleakala MPS 1640611
2022 08 31.410688 00 11 34.970 +14 06 16.28 21.60 w F51 – Pan-STARRS 1, Haleakala MPS 1640611
2022 08 31.422323 00 11 34.570 +14 06 15.02 21.62 w F51 – Pan-STARRS 1, Haleakala MPS 1640611
2022 09 25.269960 23 54 30.416 +12 27 31.07 21.06 G G96 – Mt. Lemmon Survey MPS 1663462
2022 09 25.275138 23 54 30.208 +12 27 29.38 20.94 G G96 – Mt. Lemmon Survey MPS 1663462
2022 09 25.280294 23 54 29.930 +12 27 27.32 20.73 G G96 – Mt. Lemmon Survey MPS 1663462
2022 09 25.285453 23 54 29.714 +12 27 25.52 21.44 G G96 – Mt. Lemmon Survey MPS 1663462
2022 09 25.296014 23 54 29.412 +12 27 22.77 21.42 w F51 – Pan-STARRS 1, Haleakala MPS 1663462
2022 09 25.308112 23 54 28.866 +12 27 18.48 21.27 w F51 – Pan-STARRS 1, Haleakala MPS 1663462
2022 09 25.332245 23 54 27.734 +12 27 10.02 21.04 w F51 – Pan-STARRS 1, Haleakala MPS 1663462
2022 10 01.289921 23 50 02.316 +11 50 22.27 21.43 w F52 – Pan-STARRS 2, Haleakala MPS 1663462
2022 10 01.301374 23 50 01.802 +11 50 17.91 21.16 w F52 – Pan-STARRS 2, Haleakala MPS 1663462
2022 10 01.312778 23 50 01.289 +11 50 13.44 21.26 w F52 – Pan-STARRS 2, Haleakala MPS 1663462
2022 10 18.283552 23 39 16.879 +09 55 24.97 21.38 w F52 – Pan-STARRS 2, Haleakala MPS 1684929
2022 10 18.295806 23 39 16.489 +09 55 20.11 21.66 w F52 – Pan-STARRS 2, Haleakala MPS 1684929
2022 10 18.308024 23 39 16.086 +09 55 14.95 21.44 w F52 – Pan-STARRS 2, Haleakala MPS 1684929
2022 10 27.198196 23 35 32.269 +08 57 15.98 21.36 G G96 – Mt. Lemmon Survey MPS 1726047
2022 10 27.203410 23 35 32.201 +08 57 13.97 21.73 G G96 – Mt. Lemmon Survey MPS 1726047
2022 10 27.208608 23 35 32.068 +08 57 11.63 21.35 G G96 – Mt. Lemmon Survey MPS 1726047
2022 10 27.213808 23 35 31.981 +08 57 09.90 20.94 G G96 – Mt. Lemmon Survey MPS 1726047
2023 11 18.496807 07 26 33.951 +17 14 37.65 21.68 w F52 – Pan-STARRS 2, Haleakala MPS 2070529
2023 11 18.509698 07 26 33.921 +17 14 34.60 21.72 w F52 – Pan-STARRS 2, Haleakala MPS 2070529
2023 11 18.522588 07 26 33.869 +17 14 31.51 21.83 w F52 – Pan-STARRS 2, Haleakala MPS 2070529
2023 12 05.585421 07 22 07.992 +16 13 23.44 21.88 w F52 – Pan-STARRS 2, Haleakala MPS 2070529
2023 12 05.597124 07 22 07.618 +16 13 21.59 21.42 w F52 – Pan-STARRS 2, Haleakala MPS 2070529
2023 12 05.608850 07 22 07.243 +16 13 19.14 21.22 w F52 – Pan-STARRS 2, Haleakala MPS 2070529
2024 01 11.276096 06 52 55.052 +14 59 30.95 20.77 G G96 – Mt. Lemmon Survey MPS 2111660
2024 01 11.287582 06 52 54.412 +14 59 30.26 21.76 G G96 – Mt. Lemmon Survey MPS 2111660
2024 01 11.293300 06 52 54.095 +14 59 29.76 21.42 G G96 – Mt. Lemmon Survey MPS 2111660